Grimsby

*Note: All times are displayed in the local standard time of the station location.
**Rain - Equipment is designed to accurately record liquid precipitation; under conditions when precipitation is not in liquid form, the data displayed may not properly reflect rainfall values.

Date Max Temp
(°C)
Min Temp
(°C)
Avg Temp
(°C)
Rain (mm) Avg RH (%)
Thu, Dec 13, 2018 4.1 -2.6 0.1 1.2 99.8
Wed, Dec 12, 2018 1.1 -10.3 -2.7 0.0 98.5
Tue, Dec 11, 2018 -1.4 -3.6 -2.1 0.0 98.5
Mon, Dec 10, 2018 -0.2 -3.2 -1.6 0.0 98.4
Sun, Dec 09, 2018 -0.6 -11.9 -4.7 0.0 92.9
Sat, Dec 08, 2018 -1.5 -7.9 -4.2 0.0 91.5
Fri, Dec 07, 2018 -3.6 -6.7 -5.1 0.0 89.3
DateTime Avg Temp (°C) Rain (mm) RH (%)
Fri, Dec 14, 2018 17:00 4.7 0.0 95.7
Fri, Dec 14, 2018 16:00 5.4 0.0 97.9
Fri, Dec 14, 2018 15:00 5.0 0.0 99.9
Fri, Dec 14, 2018 14:00 4.6 0.0 99.9
Fri, Dec 14, 2018 13:00 4.2 0.0 99.9
Fri, Dec 14, 2018 12:00 3.6 0.2 99.9
Fri, Dec 14, 2018 11:00 3.2 0.8 99.9
Fri, Dec 14, 2018 10:00 3.1 1.0 99.9
Fri, Dec 14, 2018 09:00 3.0 0.0 99.9
Fri, Dec 14, 2018 08:00 2.7 0.0 99.9
Fri, Dec 14, 2018 07:00 2.4 0.0 99.9
Fri, Dec 14, 2018 06:00 1.9 0.0 99.9
Fri, Dec 14, 2018 05:00 1.6 0.0 99.9
Fri, Dec 14, 2018 04:00 1.1 0.2 99.9
Fri, Dec 14, 2018 03:00 0.6 0.0 99.9
Fri, Dec 14, 2018 02:00 0.8 0.0 99.9
Fri, Dec 14, 2018 01:00 0.4 0.0 99.9
Fri, Dec 14, 2018 00:00 -0.2 0.0 99.9
Thu, Dec 13, 2018 23:00 -1.1 0.0 99.9
Thu, Dec 13, 2018 22:00 -1.9 0.0 99.9
Thu, Dec 13, 2018 21:00 -1.8 0.0 99.9
Thu, Dec 13, 2018 20:00 -0.8 0.0 99.9
Thu, Dec 13, 2018 19:00 0.9 0.0 99.9
Thu, Dec 13, 2018 18:00 1.7 0.0 99.9
Thu, Dec 13, 2018 17:00 2.0 0.0 99.9
Thu, Dec 13, 2018 16:00 2.3 0.0 99.9
Thu, Dec 13, 2018 15:00 2.4 0.0 99.9
Thu, Dec 13, 2018 14:00 3.1 0.0 99.5
Thu, Dec 13, 2018 13:00 3.4 0.0 99.1
Thu, Dec 13, 2018 12:00 2.0 0.4 99.9
Thu, Dec 13, 2018 11:00 1.4 0.8 99.9
Thu, Dec 13, 2018 10:00 0.6 0.0 99.9
Thu, Dec 13, 2018 09:00 -0.6 0.0 99.9
Thu, Dec 13, 2018 08:00 -1.4 0.0 99.9
Thu, Dec 13, 2018 07:00 -0.9 0.0 99.9
Thu, Dec 13, 2018 06:00 -0.9 0.0 99.9
Thu, Dec 13, 2018 05:00 -0.9 0.0 99.9
Thu, Dec 13, 2018 04:00 -1.4 0.0 99.9
Thu, Dec 13, 2018 03:00 -1.6 0.0 99.9
Thu, Dec 13, 2018 02:00 -1.6 0.0 99.9
Thu, Dec 13, 2018 01:00 -1.6 0.0 99.9
Thu, Dec 13, 2018 00:00 -1.4 0.0 99.9
Wed, Dec 12, 2018 23:00 -0.8 0.0 99.9
Wed, Dec 12, 2018 22:00 -0.8 0.0 98.6
Wed, Dec 12, 2018 21:00 -0.8 0.0 96.7
Wed, Dec 12, 2018 20:00 -0.7 0.0 97.0
Wed, Dec 12, 2018 19:00 -0.4 0.0 96.4
Wed, Dec 12, 2018 18:00 -0.1 0.0 96.8


asterix Register now to access more data! asterix